Weather History for Monett, MO

Change the Weather History Date:

Friday, February 28, 2014

  Actual Average (KJLN) Record (KJLN)
Temperature  
Mean Temperature 36 °F 44 °F  
Max Temperature 42 °F 55 °F 78 °F (1972)
Min Temperature 30 °F 33 °F 2 °F (1962)
Degree Days  
Heating Degree Days 29 21  
Month to date heating degree days 704  
Since 1 July heating degree days 3254  
Cooling Degree Days 0 0  
Month to date cooling degree days 1  
Year to date cooling degree days 1  
Moisture  
Dew Point 26 °F    
Average Humidity 66    
Maximum Humidity 93    
Minimum Humidity 48    
Precipitation  
Precipitation 0.00 in 0.10 in 1.52 in (1987)
Month to date precipitation 2.32  
Year to date precipitation 4.35  
Sea Level Pressure  
Sea Level Pressure 29.87 in    
Wind  
Wind Speed 11 mph (SE)    
Max Wind Speed 18 mph    
Max Gust Speed 25 mph    
Visibility 10 miles    
Events Rain    
T = Trace of Precipitation, MM = Missing Value Source: NWS Daily Summary

Daily Weather History Graph

Daily Weather History Graph

Search for Another Location

Airport:

Trip Planner

Search our weather history database for the weather conditions in past years. The results will help you decide how hot, cold, wet, or windy it might be!

Date:

Astronomy

Feb. 28, 2014 Rise Set
Actual Time 6:48 AM CST 6:09 PM CST
Civil Twilight 6:22 AM CST 6:35 PM CST
Nautical Twilight 5:52 AM CST 7:05 PM CST
Astronomical Twilight 5:22 AM CST 7:35 PM CST
Moon 6:02 AM CST (2/28) 5:46 PM CST (2/28)
Length of Visible Light 12h 13m
Length of Day
11h 21m
Waning Crescent, 1% of the Moon is Illuminated
Feb 28
Waning Crescent
Mar 1
New
Mar 8
First Quarter
Mar 16
Full
Mar 23
Last Quarter

Hourly Weather History & Observations

Time (CST) Temp. Windchill Dew Point Humidity Pressure Visibility Wind Dir Wind Speed Gust Speed Precip Events Conditions
12:10 AM 32.0 °F 24.8 °F 14.0 °F 48% 29.88 in 10.0 mi ESE 8.1 mph - N/A   Clear
12:35 AM 32.0 °F 24.2 °F 14.0 °F 48% 29.88 in 10.0 mi ESE 9.2 mph - N/A   Clear
12:55 AM 32.0 °F 24.2 °F 14.0 °F 48% 29.88 in 10.0 mi ESE 9.2 mph - N/A   Clear
1:15 AM 32.0 °F 24.2 °F 14.0 °F 48% 29.88 in 10.0 mi SE 9.2 mph - N/A   Clear
1:35 AM 32.0 °F 24.2 °F 15.8 °F 51% 29.87 in 10.0 mi SE 9.2 mph - N/A   Clear
1:55 AM 32.0 °F 24.2 °F 15.8 °F 51% 29.87 in 10.0 mi ESE 9.2 mph - N/A   Clear
2:15 AM 32.0 °F 23.6 °F 15.8 °F 51% 29.86 in 10.0 mi ESE 10.4 mph - N/A   Clear
2:35 AM 32.0 °F 23.6 °F 15.8 °F 51% 29.87 in 10.0 mi ESE 10.4 mph - N/A   Clear
2:55 AM 30.2 °F 21.9 °F 15.8 °F 55% 29.86 in 10.0 mi ESE 9.2 mph - N/A   Clear
3:15 AM 30.2 °F 20.8 °F 15.8 °F 55% 29.84 in 10.0 mi ESE 11.5 mph - N/A   Clear
3:35 AM 32.0 °F 23.0 °F 15.8 °F 51% 29.84 in 10.0 mi ESE 11.5 mph - N/A   Clear
3:55 AM 32.0 °F 22.1 °F 15.8 °F 51% 29.84 in 10.0 mi ESE 13.8 mph - N/A   Clear
4:15 AM 32.0 °F 22.1 °F 17.6 °F 55% 29.84 in 10.0 mi ESE 13.8 mph - N/A   Clear
4:35 AM 32.0 °F 22.1 °F 17.6 °F 55% 29.84 in 10.0 mi ESE 13.8 mph - N/A   Clear
4:50 AM 32.0 °F 22.5 °F 19.4 °F 60% 29.84 in 10.0 mi ESE 12.7 mph 18.4 mph N/A   Clear
5:15 AM 32.0 °F 22.5 °F 19.4 °F 60% 29.84 in 10.0 mi ESE 12.7 mph - N/A   Clear
5:35 AM 32.0 °F 22.1 °F 19.4 °F 60% 29.84 in 10.0 mi ESE 13.8 mph - N/A   Clear
5:55 AM 32.0 °F 22.5 °F 19.4 °F 60% 29.85 in 10.0 mi SE 12.7 mph - N/A   Clear
6:15 AM 32.0 °F 22.5 °F 19.4 °F 60% 29.84 in 10.0 mi ESE 12.7 mph - N/A   Clear
6:35 AM 32.0 °F 22.5 °F 19.4 °F 60% 29.83 in 10.0 mi ESE 12.7 mph - N/A   Clear
6:55 AM 30.2 °F 18.9 °F 21.2 °F 69% 29.83 in 10.0 mi ESE 16.1 mph - N/A   Clear
7:15 AM 30.2 °F 18.5 °F 21.2 °F 69% 29.82 in 10.0 mi ESE 17.3 mph 21.9 mph N/A   Clear
7:35 AM 32.0 °F 20.8 °F 21.2 °F 64% 29.82 in 10.0 mi ESE 17.3 mph 24.2 mph N/A   Clear
7:55 AM 32.0 °F 20.8 °F 21.2 °F 64% 29.81 in 10.0 mi ESE 17.3 mph 24.2 mph N/A   Clear
8:15 AM 32.0 °F 21.2 °F 21.2 °F 64% 29.81 in 10.0 mi ESE 16.1 mph 23.0 mph N/A   Clear
8:35 AM 32.0 °F 20.5 °F 21.2 °F 64% 29.82 in 10.0 mi ESE 18.4 mph 25.3 mph N/A   Clear
8:55 AM 33.8 °F 23.9 °F 21.2 °F 60% 29.83 in 10.0 mi SE 15.0 mph 19.6 mph N/A   Clear
9:15 AM 33.8 °F 24.3 °F 21.2 °F 60% 29.85 in 10.0 mi SE 13.8 mph 23.0 mph N/A   Clear
9:30 AM 35.6 °F 26.2 °F 21.2 °F 56% 29.86 in 10.0 mi ESE 15.0 mph 19.6 mph N/A   Scattered Clouds
9:55 AM 37.4 °F 28.5 °F 21.2 °F 52% 29.86 in 10.0 mi SE 15.0 mph - N/A   Scattered Clouds
10:15 AM 37.4 °F 29.3 °F 21.2 °F 52% 29.86 in 10.0 mi SE 12.7 mph - N/A   Clear
10:35 AM 37.4 °F 28.9 °F 21.2 °F 52% 29.87 in 10.0 mi SSE 13.8 mph - N/A   Mostly Cloudy
10:55 AM 37.4 °F 29.8 °F 24.8 °F 60% 29.86 in 10.0 mi ESE 11.5 mph - N/A Rain Light Rain
11:15 AM 37.4 °F 28.5 °F 24.8 °F 60% 29.86 in 10.0 mi ESE 15.0 mph - N/A   Light Drizzle
11:35 AM 37.4 °F 29.8 °F 26.6 °F 65% 29.86 in 10.0 mi ESE 11.5 mph 18.4 mph N/A   Light Drizzle
11:55 AM 37.4 °F 30.3 °F 28.4 °F 70% 29.85 in 10.0 mi ESE 10.4 mph 17.3 mph N/A   Light Drizzle
12:15 PM 37.4 °F 29.8 °F 30.2 °F 75% 29.86 in 10.0 mi ESE 11.5 mph 18.4 mph N/A   Light Drizzle
12:35 PM 39.2 °F 32.0 °F 30.2 °F 70% 29.85 in 10.0 mi SE 11.5 mph 20.7 mph N/A   Light Drizzle
12:55 PM 41.0 °F 32.8 °F 30.2 °F 65% 29.83 in 10.0 mi ESE 16.1 mph 24.2 mph N/A   Overcast
1:15 PM 41.0 °F 33.5 °F 30.2 °F 65% 29.83 in 10.0 mi SE 13.8 mph 19.6 mph N/A   Overcast
1:35 PM 42.8 °F 35.8 °F 32.0 °F 66% 29.82 in 10.0 mi SE 13.8 mph - N/A   Overcast
1:55 PM 42.8 °F 35.8 °F 30.2 °F 61% 29.81 in 10.0 mi SE 13.8 mph - N/A   Overcast
2:15 PM 42.8 °F 35.4 °F 30.2 °F 61% 29.81 in 10.0 mi SE 15.0 mph 23.0 mph N/A   Overcast
2:35 PM 41.0 °F 33.9 °F 30.2 °F 65% 29.81 in 10.0 mi SE 12.7 mph 20.7 mph N/A   Overcast
2:55 PM 41.0 °F 33.1 °F 30.2 °F 65% 29.82 in 10.0 mi SE 15.0 mph 21.9 mph N/A   Overcast
3:15 PM 41.0 °F 33.9 °F 32.0 °F 70% 29.81 in 10.0 mi SE 12.7 mph 19.6 mph N/A   Overcast
3:35 PM 41.0 °F 33.9 °F 32.0 °F 70% 29.81 in 10.0 mi SE 12.7 mph - N/A   Overcast
3:55 PM 41.0 °F 33.9 °F 32.0 °F 70% 29.82 in 10.0 mi ESE 12.7 mph 18.4 mph N/A   Overcast
4:15 PM 41.0 °F 33.9 °F 32.0 °F 70% 29.82 in 10.0 mi SE 12.7 mph - N/A   Overcast
4:35 PM 41.0 °F 35.2 °F 32.0 °F 70% 29.84 in 10.0 mi SE 9.2 mph - N/A   Overcast
4:55 PM 41.0 °F 34.7 °F 32.0 °F 70% 29.85 in 10.0 mi SE 10.4 mph - N/A   Overcast
5:15 PM 41.0 °F 35.2 °F 32.0 °F 70% 29.86 in 10.0 mi SE 9.2 mph - N/A   Overcast
5:35 PM 39.2 °F 33.6 °F 32.0 °F 75% 29.87 in 10.0 mi SE 8.1 mph - N/A   Overcast
5:50 PM 39.2 °F 33.0 °F 32.0 °F 75% 29.87 in 10.0 mi SE 9.2 mph - N/A   Overcast
6:15 PM 39.2 °F 31.6 °F 32.0 °F 75% 29.87 in 10.0 mi SE 12.7 mph - N/A   Overcast
6:35 PM 39.2 °F 32.0 °F 32.0 °F 75% 29.87 in 10.0 mi SSE 11.5 mph 16.1 mph N/A   Overcast
6:55 PM 39.2 °F 32.5 °F 32.0 °F 75% 29.88 in 10.0 mi SE 10.4 mph - N/A   Overcast
7:15 PM 37.4 °F 31.4 °F 32.0 °F 81% 29.90 in 10.0 mi SE 8.1 mph - N/A   Overcast
7:35 PM 37.4 °F 32.1 °F 32.0 °F 81% 29.91 in 10.0 mi SE 6.9 mph - N/A   Overcast
7:55 PM 37.4 °F 31.4 °F 32.0 °F 81% 29.91 in 10.0 mi SE 8.1 mph - N/A   Overcast
8:15 PM 37.4 °F 31.4 °F 32.0 °F 81% 29.91 in 10.0 mi SE 8.1 mph - N/A   Overcast
8:35 PM 37.4 °F 32.1 °F 32.0 °F 81% 29.92 in 10.0 mi SSE 6.9 mph - N/A   Overcast
8:55 PM 37.4 °F 32.1 °F 32.0 °F 81% 29.92 in 10.0 mi SE 6.9 mph - N/A   Overcast
9:15 PM 37.4 °F 34.9 °F 32.0 °F 81% 29.93 in 10.0 mi SE 3.5 mph - N/A   Overcast
9:35 PM 37.4 °F 33.8 °F 32.0 °F 81% 29.95 in 10.0 mi SE 4.6 mph - N/A   Overcast
9:55 PM 37.4 °F 33.8 °F 32.0 °F 81% 29.96 in 10.0 mi SE 4.6 mph - N/A   Overcast
10:15 PM 37.4 °F 33.8 °F 32.0 °F 81% 29.97 in 10.0 mi SSE 4.6 mph - N/A   Overcast
10:35 PM 37.4 °F 33.8 °F 32.0 °F 81% 29.97 in 10.0 mi SSE 4.6 mph - N/A   Overcast
10:55 PM 37.4 °F 34.9 °F 33.8 °F 87% 29.97 in 10.0 mi SE 3.5 mph - N/A   Overcast
11:15 PM 37.4 °F 34.9 °F 33.8 °F 87% 29.97 in 10.0 mi SE 3.5 mph - N/A   Overcast
11:35 PM 35.6 °F - 33.8 °F 93% 29.98 in 10.0 mi Calm Calm - N/A   Overcast
11:55 PM 35.6 °F 32.8 °F 33.8 °F 93% 29.97 in 10.0 mi ESE 3.5 mph - N/A   Overcast